Starlink 34187

operational
NORAD ID: 63956 Int'l Des: 2025-099 Owner: SPXS Country: US Constellation: starlink
LEOCIRCULAR

About Starlink 34187

Description loading...

Live Position

Loading 3D Globe...

Upcoming Passes

Altitude History

Altitude vs Time

uPlot chart will show altitude changes over time

Two-Line Element Set

1 63956U 25099E 26048.68328561 .00018116 00000-0 66608-3 0 9999
2 63956 42.9973 289.4666 0000822 297.1405 62.9363 15.27586441 44275
Epoch: Feb 17, 2026 • Age: 14 hours

Current Status

Altitude 495.3 km
Velocity 7.62 km/s
Sub-Earth Point -41.69°S, 61.23°W
Launch Date May 13, 2025
Age 0.7 years
Type internet

Technical Details

Classification Payload
Mass 575.00 kg
Dry Mass 530.00 kg
Total Mass 575.00 kg
Length 0.30 m
Diameter 4.10 m
Span 29.00 m
Shape Box + pan
Manufacturer SPXS
Bus Type Starlink V2MO
Phase Status In Orbit
Owner/State SPXS/US

Large Constellations

Loading constellations...